Location: McFarlands Corners
(41.4117°N, 81.3382°W)
Time: 13:12:41
(UTC+00:00)

A-11 Canister half - Pass Details

Date: 19 February 2026
Orbit: 1525 x 1683 km, 47.3° (Epoch: 11 March)

Event Time Altitude Azimuth Distance (km) Brightness Sun altitude
Rises 01:03:07 0° 283° (WNW) 4,688 13.0 -23.2°
Reaches altitude 10° 01:06:14 10° 287° (WNW) 3,697 12.1 -23.7°
Maximum altitude 01:15:28 63° 8° (N) 1,677 9.1 -25.5°
Enters shadow 01:18:57 41° 70° (ENE) 2,098 9.2 -26.1°
Drops below altitude 10° 01:24:44 10° 89° (E) 3,720 - -27.2°
Sets 01:27:53 0° 92° (E) 4,717 - -27.8°
